Regional Weather Roundup
Issued by NWS Kansas City/Pleasant Hill, MO

Home | Current Version | Previous Version | Graphics & Text | Print | Product List | Glossary Off
Versions: 1 2 3 4 5 6 7 8 9 10 11 12 13 14 15 16 17 18 19 20 21 22 23 24 25 26 27 28 29 30 31 32 33 34 35 36 37 38 39 40 41 42 43 44 45 46 47 48 49 50

000
ASUS43 KEAX 051210
RWREAX

WEATHER ROUNDUP FOR EASTERN KANSAS AND NORTHWEST MISSOURI
NATIONAL WEATHER SERVICE KANSAS CITY/PLEASANT HILL MO
600 AM CST THU MAR 05 2015

KSZ040-057-103>105-MOZ028-029-037-043-051300-
...KANSAS CITY METROPOLITAN AREA...

CITY           SKY/WX    TMP DP  RH WIND       PRES   REMARKS
K.C. INTL      CLEAR      7  -1  70 N8        30.52R WCI  -6
6HR MIN TEMP:   7; 6HR MAX TEMP:  18;

K.C. DOWNTOWN  CLEAR     13   0  56 N8        30.55R WCI   2
6HR MIN TEMP:  13; 6HR MAX TEMP:  24;

LEES SUMMIT    CLEAR     12  -1  56 N9        30.52R WCI   0
6HR MIN TEMP:  11; 6HR MAX TEMP:  23;

OLATHE - IXD   CLEAR      7   1  76 N7        30.53R WCI  -5
6HR MIN TEMP:   6; 6HR MAX TEMP:  21;

OLATHE - OJC   CLEAR     13   1  59 N5        30.51R WCI   5
6HR MIN TEMP:  12; 6HR MAX TEMP:  23;

LAWRENCE       CLEAR      4   0  83 N5        30.55R WCI  -5

$$

MOZ001>008-011>017-020>025-030>033-038>040-044>046-053-054-051300-
...NORTHERN AND CENTRAL MISSOURI...

CITY           SKY/WX    TMP DP  RH WIND       PRES   REMARKS
ST. JOSEPH     CLEAR      4  -2  76 N3        30.56R
6HR MIN TEMP:   4; 6HR MAX TEMP:  14;

MOSBY          SUNNY     12   1  62 N6        30.55R WCI   3
WARRENSBURG    CLEAR     14   5  67 NW7       30.53R WCI   4
WHITEMAN AFB   CLEAR     13   4  69 N7        30.50R WCI   2
6HR MIN TEMP:  13; 6HR MAX TEMP:  21;

CLINTON        CLEAR     18   9  68 N7        30.51R WCI   8
SEDALIA        CLEAR     15   4  61 NW8       30.50R WCI   4
6HR MIN TEMP:  15; 6HR MAX TEMP:  22;

WARSAW         NOT AVBL
MARSHALL       CLEAR     16   7  67 NW6       30.50R WCI   7
CHILLICOTHE      N/A      9   0  67 NW7       30.54R WCI  -2
6HR MIN TEMP:   9; 6HR MAX TEMP:  19;

KIRKSVILLE     NOT AVBL

$$

MOZ041-047>049-056>058-063>065-088>090-097-051300-
...EASTERN AND SOUTHERN MISSOURI...

CITY           SKY/WX    TMP DP  RH WIND       PRES   REMARKS
ST. LOUIS INTL CLOUDY    18   4  54 NE9       30.46R WCI   7
6HR MIN TEMP:  18; 6HR MAX TEMP:  22;

SPIRIT OF STL  CLOUDY    19   5  54 NE9       30.46R WCI   8
COLUMBIA       CLEAR     14   6  70 N8        30.46R WCI   3
JEFFERSON CITY PTCLDY    19   4  51 NW12      30.50R WCI   7
MEXICO         PTCLDY    16  12  86 N6        30.47R WCI   7
HANNIBAL       CLOUDY    14   5  67 N8        30.48R WCI   3
ROLLA          MOCLDY    17   7  64 NW8       30.40R WCI   7
OSAGE BEACH    CLEAR     18   1  49 NW6       30.46R WCI   9
SPRINGFIELD    CLEAR     15   7  70 NW6       30.43R WCI   6
NEVADA         CLEAR     16   7  67 N6        30.52R WCI   7
JOPLIN         CLEAR     18   9  68 NW6       30.49R WCI  10
WEST PLAINS    CLOUDY    19   6  57 NW6       30.40R WCI  11

$$

IAZ060-094-KSZ022-034>040-054-083-096-NEZ052-066-093-051300-
...KANSAS...SOUTHEAST NEBRASKA AND IOWA...

CITY           SKY/WX    TMP DP  RH WIND       PRES   REMARKS
TOPEKA         CLEAR     11   2  67 N5        30.56R WCI   3
6HR MIN TEMP:  10; 6HR MAX TEMP:  20;

MANHATTAN      CLEAR     11   3  70 CALM      30.53R
EMPORIA        CLEAR     11   3  70 N7        30.51R WCI   0
CHANUTE        CLEAR     14   9  80 N6        30.51R WCI   5
WICHITA        CLEAR     13   6  74 CALM      30.49R
OMAHA          CLEAR      4  -3  73 CALM      30.53R
LINCOLN        CLEAR      2  -4  76 N3        30.51R
FALLS CITY     CLEAR      5  -2  72 CALM      30.54R
LAMONI         CLEAR      2  -3  80 NW7       30.50R WCI -11
DES MOINES     PTCLDY     3  -7  63 N3        30.52R

$$



USA.gov is the U.S. government's official web portal to all federal, state and local government web resources and services.